Location: Unspecified
(22.6800°N, 112.2000°E)
Time: 04:20:13
(UTC+08:00)

ISS - Pass Details

Date: 27 August 2019
Orbit: 411 x 421 km, 51.6° (Epoch: 14 October)

Event Time Altitude Azimuth Distance (km) Brightness Sun altitude
Exits shadow 04:34:28 30° 2° (N) 762 -2.3 -22.3°
Drops below altitude 10° 04:36:31 10° 26° (NNE) 1,481 -0.4 -21.9°
Sets 04:38:41 0° 33° (NNE) 2,347 0.9 -21.4°
